Starlink 35341

operational
NORAD ID: 66027 Int'l Des: 2025-232 Owner: SPXS Country: US Constellation: starlink
LEOCIRCULAR

About Starlink 35341

Description loading...

Live Position

Loading 3D Globe...

Upcoming Passes

Altitude History

Altitude vs Time

uPlot chart will show altitude changes over time

Two-Line Element Set

1 66027C 25232Y 25290.41229167 .00998010 00000+0 13732-2 0 2903
2 66027 53.1575 58.9103 0008094 286.3731 214.3852 16.04336902 16
Epoch: Oct 17, 2025 • Age: 61 hours

Current Status

Altitude 258.2 km
Velocity 7.75 km/s
Sub-Earth Point 41.09°N, 29.73°W
Launch Date Oct 16, 2025
Age 3 days
Type internet

Technical Details

Classification Payload
Mass 575.00 kg
Dry Mass 530.00 kg
Total Mass 575.00 kg
Length 0.30 m
Diameter 4.10 m
Span 29.00 m
Shape Box + pan
Manufacturer SPXS
Bus Type Starlink V2MO
Phase Status In Orbit
Owner/State SPXS/US

Large Constellations

Loading constellations...